Regional Weather Roundup
Issued by NWS

Home | Current Version | Previous Version | Graphics & Text | Print | Product List | Glossary On
Versions: 1 2 3 4 5 6 7 8 9 10 11 12 13 14 15 16 17 18 19 20 21 22 23 24 25 26 27 28 29 30 31 32 33 34 35 36 37 38 39 40 41 42 43 44 45 46 47 48 49 50
000
ASUS43 KLSX 211107
RWRMO

WEATHER SUMMARY FOR MISSOURI
NATIONAL WEATHER SERVICE SPRINGFIELD MO
500 AM CST SAT JAN 21 2017

NOTE: "FAIR" INDICATES FEW OR NO CLOUDS BELOW 12,000 FEET WITH NO
       SIGNIFICANT WEATHER AND/OR OBSTRUCTIONS TO VISIBILITY.
       CURRENT SKY AND/OR WEATHER CONDITIONS ARE NOT AVAILABLE FOR
       CHILLICOTHE AND FARMINGTON.

MOZ001>031-035>038-043-044-053-054-211200-
...NORTHERN AND WESTERN MISSOURI...

CITY           SKY/WX    TMP DP  RH WIND       PRES   REMARKS
KANSAS CTY INT FOG       41  40  96 SW6       29.43R VSB 1/4
KANSAS C DTWN  CLOUDY    42  40  92 W8        29.44R FOG
LEE`S SUMMIT   CLEAR     40  38  93 SW9       29.44R
ST JOSEPH      FOG       38  38 100 SE3       29.42S VSB 1/4
CHILLICOTHE      N/A     34  33  96 CALM      29.41F
KIRKSVILLE     CLEAR     37  36  96 S6        29.40F

$$
MOZ066>068-077>081-088>096-101>105-211200-
...SOUTHWEST MISSOURI...

CITY           SKY/WX    TMP DP  RH WIND       PRES   REMARKS
SPRINGFIELD    CLEAR     48  38  68 S10       29.53R
JOPLIN         CLEAR     48  36  63 SW10      29.53R
BRANSON        CLOUDY    54  37  54 SW5       29.56S

$$
MOZ032>034-039>042-045>050-055>058-069>072-211200-
...CENTRAL MISSOURI...

CITY           SKY/WX    TMP DP  RH WIND       PRES   REMARKS
COLUMBIA       CLEAR     51  41  68 S12       29.46F
JEFFERSON CITY CLEAR     53  40  61 S8        29.48S
ROLLA          CLEAR     52  43  71 S13       29.49F
SEDALIA        CLEAR     50  38  63 SW12      29.46R
WHITEMAN AFB   CLEAR     46  42  85 W12       29.44R
WARRENSBURG    CLEAR     43  36  75 SW12      29.45R
OSAGE BEACH    CLEAR     50  40  68 SE5       29.50F

$$
MOZ051-052-059>065-211200-
...EAST CENTRAL MISSOURI...

CITY           SKY/WX    TMP DP  RH WIND       PRES   REMARKS
ST LOUIS INTL  MOCLDY    53  46  77 S7        29.52F
SPIRIT OF STL  CLOUDY    55  46  71 S10       29.50F
ST CHARLES     PTCLDY    43  42  97 SE8       29.51F

$$
MOZ072>076-082>087-097>100-106>115-211200-
...SOUTH CENTRAL AND SOUTHEAST MISSOURI...

CITY           SKY/WX    TMP DP  RH WIND       PRES   REMARKS
CAPE GIRARDEAU PTCLDY    50  48  93 E6        29.62S
FARMINGTON     CLEAR     47  45  93 S7        29.59S
POPLAR BLUFF   PTCLDY    44  44 100 CALM      29.61S FOG
WEST PLAINS    PTCLDY    53  44  71 S7        29.58S

$$



USA.gov is the U.S. government's official web portal to all federal, state and local government web resources and services.